Weather History for KMMU - August, 2014

Change the Weather History Date:

Sunday, August 24, 2014

  Actual Average Record
Temperature  
Mean Temperature 68 °F -  
Max Temperature 80 °F 82 °F 93 °F (1947)
Min Temperature 55 °F 57 °F 41 °F (1952)
Cooling Degree Days 2    
Growing Degree Days 18 (Base 50)    
Moisture  
Dew Point 58 °F    
Average Humidity 81    
Maximum Humidity 100    
Minimum Humidity 47    
Precipitation  
Precipitation 0.00 in - - ()
Sea Level Pressure  
Sea Level Pressure 30.14 in    
Wind  
Wind Speed 1 mph (East)    
Max Wind Speed 10 mph    
Max Gust Speed 17 mph    
Visibility 7 miles    
Events Fog    
Averages and records for this station are not official NWS values.
T = Trace of Precipitation, MM = Missing Value Source: NWS Daily Summary

Daily Weather History Graph

Daily Weather History Graph

Search for Another Location

Airport or City:

Trip Planner

Search our weather history database for the weather conditions in past years. The results will help you decide how hot, cold, wet, or windy it might be!

Date:

Astronomy

Aug. 24, 2014 Rise Set
Actual Time 6:16 AM EDT 7:42 PM EDT
Civil Twilight 5:47 AM EDT 8:11 PM EDT
Nautical Twilight 5:13 AM EDT 8:45 PM EDT
Astronomical Twilight 4:36 AM EDT 9:21 PM EDT
Moon 5:24 AM EDT (8/24) 6:59 PM EDT (8/24)
Length of Visible Light 14h 23m
Length of Day
13h 25m
Waning Crescent, 1% of the Moon is Illuminated
Aug 24
Waning Crescent
Aug 25
New
Sep 2
First Quarter
Sep 8
Full
Sep 15
Last Quarter

Hourly Weather History & Observations

Time (EDT) Temp. Heat Index Dew Point Humidity Pressure Visibility Wind Dir Wind Speed Gust Speed Precip Events Conditions
12:15 AM 66.2 °F - 62.6 °F 88% 30.12 in 10.0 mi Calm Calm - N/A   Overcast
12:35 AM 66.2 °F - 62.6 °F 88% 30.12 in 10.0 mi Calm Calm - N/A   Overcast
12:55 AM 64.4 °F - 60.8 °F 88% 30.12 in 7.0 mi Calm Calm - N/A   Mostly Cloudy
1:15 AM 62.6 °F - 59.0 °F 88% 30.13 in 1.0 mi Calm Calm - N/A   Mist
1:35 AM 62.6 °F - 59.0 °F 88% 30.13 in 10.0 mi Calm Calm - N/A   Scattered Clouds
1:55 AM 62.6 °F - 59.0 °F 88% 30.13 in 7.0 mi Calm Calm - N/A   Scattered Clouds
2:15 AM 60.8 °F - 59.0 °F 94% 30.13 in 1.8 mi Calm Calm - N/A   Mist
2:35 AM 60.8 °F - 57.2 °F 88% 30.13 in 7.0 mi Calm Calm - N/A   Scattered Clouds
2:55 AM 59.0 °F - 55.4 °F 88% 30.13 in 3.0 mi Calm Calm - N/A   Scattered Clouds
3:15 AM 59.0 °F - 55.4 °F 88% 30.13 in 1.5 mi Calm Calm - N/A   Scattered Clouds
3:35 AM 59.0 °F - 55.4 °F 88% 30.13 in 0.2 mi Calm Calm - N/A Fog Fog
3:55 AM 57.2 °F - 55.4 °F 94% 30.13 in 4.0 mi Calm Calm - N/A   Mostly Cloudy
4:15 AM 57.2 °F - 53.6 °F 88% 30.13 in 10.0 mi Calm Calm - N/A   Overcast
4:35 AM 57.2 °F - 53.6 °F 88% 30.13 in 0.2 mi Calm Calm - N/A Fog Fog
4:55 AM 57.2 °F - 53.6 °F 88% 30.13 in 0.2 mi Calm Calm - N/A Fog Fog
5:15 AM 55.4 °F - 53.6 °F 94% 30.13 in 1.0 mi Calm Calm - N/A   Overcast
5:35 AM 55.4 °F - 53.6 °F 94% 30.14 in 0.8 mi Calm Calm - N/A   Overcast
5:55 AM 55.4 °F - 53.6 °F 94% 30.15 in 0.8 mi Calm Calm - N/A   Overcast
6:15 AM 55.4 °F - 53.6 °F 94% 30.15 in 0.5 mi Calm Calm - N/A Fog Fog
6:35 AM 57.2 °F - 53.6 °F 88% 30.16 in 0.2 mi Calm Calm - N/A Fog Fog
6:45 AM 57.2 °F - 57.2 °F 100% 30.16 in 10.0 mi Calm Calm - N/A   Scattered Clouds
7:45 AM 62.6 °F - 60.8 °F 94% 30.16 in 10.0 mi Calm Calm - N/A   Clear
8:45 AM 68.0 °F - 62.6 °F 83% 30.16 in 10.0 mi Calm Calm - N/A   Clear
9:45 AM 73.4 °F - 62.6 °F 69% 30.16 in 10.0 mi East 5.8 mph - N/A   Clear
10:45 AM 77.0 °F - 62.6 °F 61% 30.16 in 10.0 mi ENE 8.1 mph - N/A   Clear
11:45 AM 78.8 °F - 59.0 °F 51% 30.14 in 10.0 mi ENE 8.1 mph 16.1 mph N/A   Scattered Clouds
12:45 PM 80.6 °F 81.1 °F 59.0 °F 48% 30.13 in 10.0 mi NE 8.1 mph 17.3 mph N/A   Scattered Clouds
1:45 PM 77.0 °F - 59.0 °F 54% 30.13 in 10.0 mi NE 9.2 mph - N/A   Mostly Cloudy
2:45 PM 77.0 °F - 60.8 °F 57% 30.12 in 10.0 mi East 8.1 mph - N/A   Mostly Cloudy
3:45 PM 77.0 °F - 60.8 °F 57% 30.11 in 10.0 mi East 10.4 mph - N/A   Overcast
4:45 PM 78.8 °F - 57.2 °F 47% 30.11 in 10.0 mi Calm Calm - N/A   Mostly Cloudy
5:45 PM 77.0 °F - 59.0 °F 54% 30.11 in 10.0 mi SSE 9.2 mph - N/A   Mostly Cloudy
6:45 PM 75.2 °F - 60.8 °F 61% 30.12 in 10.0 mi South 6.9 mph - N/A   Overcast
7:45 PM 73.4 °F - 59.0 °F 61% 30.13 in 10.0 mi Calm Calm - N/A   Mostly Cloudy
8:45 PM 66.2 °F - 60.8 °F 83% 30.15 in 10.0 mi Calm Calm - N/A   Clear
10:15 PM 62.6 °F - 59.0 °F 88% 30.16 in 10.0 mi Calm Calm - N/A   Clear
10:35 PM 62.6 °F - 57.2 °F 82% 30.16 in 10.0 mi Calm Calm - N/A   Clear
10:55 PM 60.8 °F - 57.2 °F 88% 30.16 in 10.0 mi Calm Calm - N/A   Clear
11:15 PM 60.8 °F - 57.2 °F 88% 30.17 in 10.0 mi Calm Calm - N/A   Clear
11:35 PM 60.8 °F - 57.2 °F 88% 30.17 in 10.0 mi Calm Calm - N/A   Clear
11:55 PM 59.0 °F - 57.2 °F 94% 30.17 in 2.5 mi Calm Calm - N/A   Clear